星链-5518 (STARLINK-5518 )

导读 | 豆包AI

STARLINK-5518是美国太空探索技术公司(SpaceX)星链(Starlink)互联网星座的卫星之一,由美国于2023年5月10日发射升空,属于低轨通信卫星。它承担着为全球范围提供高速互联网接入服务的任务,是星链星座大规模组网建设阶段的组成部分,推进了星链全球覆盖网络的构建进程。

基本信息
目录编号:
56469
目录名称:
STARLINK-5518
国际标识:
2023-064X
轨道中心:
EARTH
卫星名称:
星链-5518
卫星全名:
星链-5518 (STARLINK-5518 )
卫星状态:
在轨 (已飞行1086 天)
发射日期:
2023-05-10 UTC
国别 :
美国 (US)
星等 :
--
轨道信息
数据来源 国际轨道数据
星历时间: 2026-04-30T10:09:41+0800
11小时前
查看轨道信息
半长轴: 6950.208km
偏心率: 0.0002675
轨道倾角: 70.000°
近地点辐角 272.879°
升交点赤经 355.059°
平近点角 87.206°
近地点: 570.211km
远地点: 573.931km
周期: 96.107分钟
每日圈数: 14.983254
详细信息
固有亮度:
5
最大亮度:
2.5
卫星平台:
Starlink v1.5
覆盖范围:
全球
运营商:
太空探索技术公司
运营商所在国:
美国
制造商(研发单位):
太空探索技术公司
制造商所在国:
美国
使用方式:
暂无
卫星简介
星链(Starlink)计划是由太空探索技术公司(SpaceX)提出的一个巨型低轨卫星互联网星座项目,计划在2019年至2024年间在太空搭建由约1.2万颗卫星组成的“星链”网络,其中1584颗将部署在地球上空550千米处的近地轨道,并从2020年开始工作。该卫星仍在工作。
2D轨道图
3D轨道图
轨道高度分析图
轨道倾角分析图
轨道综合分析图
查看轨道综合分析图